Home > Weather > Västerås > Past weeks

Flag for Sweden Past Weather in Västerås, Sweden — Yesterday and Last 2 Weeks

Now
63 °F

Fog.


Feels Like: 63 °F
Forecast: 63 / 78 °F
Wind: 2 mph from East

Location: Vasteras / Hasslo

Current Time: Jun 25, 2016 at 1:51:29 AM

Latest Report: Jun 25, 2016 at 1:20 AM


Visibility: 1 mi

Pressure: 29.98 "Hg

Humidity: 94%

Dew Point: 61 °F

Location of VästeråsLocation

Past Weather in Västerås — Graph

°F

Västerås Temperature Yesterday

Maximum temperature yesterday: 68 °F (at 7:20 PM)
Minimum temperature yesterday: 59 °F (at 1:50 AM)
Average temperature yesterday: 63 °F

High & Low Weather Summary for the Past Weeks

 TemperatureHumidityPressure
High73 °F (Jun 15, 1:20 PM)100% (Jun 21, 3:50 AM)30.15 "Hg (Jun 21, 3:50 AM)
Low37 °F (Jun 12, 2:20 AM)25% (Jun 13, 1:50 PM)29.39 "Hg (Jun 18, 3:20 AM)
Average59 °F69%29.83 "Hg
* Reported Jun 10 12:20 AM — Jun 25 12:20 AM, Västerås, Weather by CustomWeather, © 2016

Note: Actual official high and low records may vary slightly from our data, if they occured in-between our weather recording intervals... More about our weather records

Advertising

Västerås Weather History for the Previous 24 Hours

Scroll right to see more
 ConditionsComfort  
Time TempWeatherWind HumidityBarometerVisibility
12:20 AM
Sat, Jun 25
64 °FFog.3 mph88%29.98 "Hg3 mi
11:50 PM
Fri, Jun 24
64 °FFog.3 mph88%29.98 "Hg5 mi
11:20 PM64 °FOvercast.3 mph94%29.98 "Hg4 mi
10:50 PM64 °FPartly sunny.3 mph94%29.98 "Hg3 mi
10:20 PM64 °FPartly sunny.5 mph88%29.98 "Hg3 mi
9:50 PM64 °FScattered clouds.5 mph94%29.98 "Hg3 mi
9:20 PM64 °FPartly sunny.6 mph94%29.98 "Hg4 mi
8:50 PM66 °FPartly sunny.3 mph88%29.98 "HgN/A
8:20 PM66 °FOvercast.5 mph88%29.98 "HgN/A
7:50 PM66 °FScattered clouds.3 mph88%29.98 "HgN/A
7:20 PM68 °FScattered clouds.2 mph83%29.98 "HgN/A
6:50 PM66 °FPartly sunny.2 mph88%29.98 "HgN/A
6:20 PM66 °FBroken clouds.3 mph88%30.01 "HgN/A
5:50 PM66 °FFog.3 mph88%30.01 "Hg5 mi
5:20 PM64 °FFog.5 mph94%30.01 "Hg4 mi
4:50 PM66 °FPartly sunny.5 mph83%30.01 "Hg6 mi
4:20 PM66 °FPartly sunny.6 mph83%30.01 "HgN/A
3:50 PM66 °FBroken clouds.6 mph83%30.01 "HgN/A
3:20 PM66 °FPartly sunny.7 mph83%30.01 "HgN/A
2:50 PM66 °FPartly sunny.6 mph83%30.01 "HgN/A
2:20 PM66 °FPartly sunny.7 mph83%30.01 "HgN/A
1:50 PM64 °FPartly sunny.6 mph88%30.01 "HgN/A
1:20 PM64 °FPartly sunny.6 mph88%30.01 "HgN/A
12:50 PM64 °FPartly sunny.7 mph88%30.01 "HgN/A
12:20 PM64 °FBroken clouds.5 mph88%30.01 "HgN/A
11:50 AM64 °FPartly sunny.5 mph88%30.01 "HgN/A
11:20 AM64 °FPartly sunny.5 mph88%30.01 "HgN/A
10:50 AM63 °FDrizzle. Partly sunny.6 mph94%30.04 "Hg2 mi
10:20 AM63 °FFog.6 mph94%30.04 "Hg2 mi
9:50 AM63 °FFog.7 mph94%30.04 "Hg2 mi
9:20 AM63 °FDrizzle. Dense fog.6 mph94%30.04 "Hg2 mi
8:50 AM63 °FDrizzle. Broken clouds.5 mph94%30.04 "Hg1 mi
8:20 AM61 °FDrizzle. Mostly cloudy.5 mph100%30.04 "Hg1 mi
7:50 AM61 °FFog.5 mph94%30.04 "Hg1 mi
7:20 AM61 °FFog.5 mph94%30.04 "Hg5 mi
6:50 AM61 °FLow clouds.6 mph94%30.07 "HgN/A
6:20 AM59 °FLow clouds.8 mph94%30.04 "HgN/A
5:50 AM59 °FLow clouds.8 mph94%30.04 "HgN/A
5:20 AM59 °FDrizzle. Cloudy.6 mph94%30.07 "Hg6 mi
4:50 AM59 °FFog.6 mph94%30.07 "Hg4 mi
4:20 AM59 °FPassing clouds.5 mph94%30.09 "Hg6 mi
3:50 AM59 °FPartly cloudy.5 mph94%30.09 "Hg6 mi
3:20 AM59 °FPassing clouds.3 mph94%30.09 "Hg6 mi
2:50 AM59 °FPassing clouds.2 mph94%30.09 "HgN/A
2:20 AM59 °FLight rain. Overcast.2 mph94%30.12 "Hg6 mi
1:50 AM59 °FLight rain. Overcast.3 mph94%30.12 "HgN/A
1:20 AM61 °FLight rain. Overcast.3 mph88%30.12 "HgN/A
Weather by CustomWeather, © 2016

See weather overviewHow to use our weather pages